{"data":{"norad_id":67706,"epoch":"2026-09-19T13:55:39.199584Z","epoch_age_seconds":148581,"freshness":"FRESH","line1":"1 67706U 26025P   26262.58031481  .00012524  00000+0  38967-3 0  9998","line2":"2 67706  97.2841  12.4741 0001464  78.3808 281.7599 15.33441124 35723","mean_motion":15.33441124,"eccentricity":0.0001464,"inclination_deg":97.2841,"raan_deg":12.4741,"arg_perigee_deg":78.3808,"mean_anomaly_deg":281.7599,"bstar":0.00038967,"rev_number":3572,"period_min":93.906442018703,"perigee_km":464.55279028556,"apogee_km":466.55662321729,"semimajor_km":6843.6917067514,"source":"CELESTRAK","updated_at":"2026-09-20T09:00:43.653635Z"}}